Location: Arrington
(35.8681°N, 86.7092°W)
Time: 18:45:09
(UTC+00:00)

SKYMED 2 - Pass Details

Date: 23 November 2019
Orbit: 621 x 623 km, 97.9° (Epoch: 15 December)

Event Time Altitude Azimuth Distance (km) Brightness Sun altitude
Rises 11:01:17 0° 165° (SSE) 2,887 7.4 -18.0°
Reaches altitude 10° 11:03:27 10° 165° (SSE) 1,985 6.5 -17.6°
Maximum altitude 11:07:47 85° 77° (ENE) 630 3.6 -16.7°
Drops below altitude 10° 11:12:08 10° 349° (N) 1,998 5.9 -15.9°
Enters shadow 11:14:14 - 349° (N) 2,868 6.7 -15.4°
